Temperature
10 10 9 10 10 9 10 10 10 11 11 13 13 13 14 15 16 16 17 17 17 17 17 17 17 16 16 15 15 14 13 13 13 12 11 11 11 10 10 9 9 8 8 7
9 9 9 10 10 10 10 10 10 10 11 13 13 13 13 15 15 15 17 17 17 17 17 17 16 16 15 15 14 14 13 13 12 11 11 11 10 10 9 9 8 8 7 7
8 9 9 9 10 10 10 9 10 11 13 13 12 11 13 15 15 16 17 17 17 17 17 17 16 16 15 15 14 13 13 12 11 11 10 10 10 9 9 8 8 7 7 6
7 8 8 10 10 11 11 11 10 11 11 12 12 14 15 16 16 16 17 17 17 17 17 16 16 15 15 14 13 13 12 12 11 10 10 9 9 9 8 8 7 7 6 6
6 7 8 9 9 10 10 10 11 11 11 11 13 12 13 16 16 16 17 17 17 16 16 16 15 15 14 14 13 12 12 11 10 10 9 9 8 8 7 7 6 6 6 5
6 7 8 10 10 10 10 10 11 11 11 11 10 10 13 16 16 16 16 16 16 16 15 15 15 14 14 13 12 12 11 10 10 9 9 8 8 7 7 6 6 5 5 5
6 7 8 9 10 10 10 11 12 12 12 11 10 13 15 15 15 15 15 15 15 15 15 14 14 13 13 12 12 11 10 10 9 8 8 7 7 6 6 5 5 4 4 4
6 7 8 9 8 10 11 13 13 13 14 13 13 14 14 14 15 15 15 14 14 14 14 13 13 12 12 12 11 10 10 9 8 8 7 6 6 5 5 4 4 4 3 3
8 9 10 10 11 13 14 13 14 14 15 14 14 14 14 14 14 14 14 14 13 13 13 13 12 12 11 11 10 9 9 8 7 7 6 6 5 5 4 4 3 3 2 2
7 8 9 10 12 13 13 14 14 14 14 14 14 14 13 13 13 13 13 13 13 13 12 12 11 11 10 10 9 8 8 7 7 6 5 5 4 4 3 3 2 2 1 1
7 7 8 10 11 13 13 13 13 14 14 14 14 13 13 13 13 13 13 12 12 12 12 11 10 10 9 8 8 7 7 6 6 5 4 4 3 3 2 2 1 1 0 -1
8 8 8 10 13 13 13 13 13 13 13 13 13 13 13 13 13 12 12 12 11 11 10 10 9 9 8 7 7 6 6 5 5 4 4 3 2 2 1 1 0 -0 -1 -1
10 10 11 11 12 12 12 12 12 12 13 12 12 12 12 12 12 12 11 11 10 10 10 9 8 8 7 7 6 6 5 5 4 3 3 2 1 1 1 0 -0 -1 -2 -2
10 10 9 10 11 11 11 12 12 12 12 12 11 11 11 11 11 11 10 10 9 9 8 8 7 7 6 6 5 5 4 4 3 2 2 1 1 -0 -1 -1 -1 -2 -2 -3
9 9 9 10 10 10 10 10 11 11 11 11 11 11 11 11 10 10 9 9 8 8 7 7 6 6 5 5 4 4 3 2 2 1 1 0 -1 -1 -2 -2 -3 -3 -3 -3
8 8 8 8 9 9 9 9 10 10 10 10 10 10 10 9 9 8 8 7 7 7 6 6 5 5 4 4 3 3 2 1 1 0 -0 -1 -1 -2 -2 -3 -4 -4 -4 -4
7 7 7 7 8 8 8 9 9 9 9 9 9 9 8 8 8 7 7 6 6 5 5 5 4 4 3 3 2 1 1 0 -0 -1 -1 -2 -2 -3 -3 -4 -4 -5 -5 -5
6 7 7 7 7 8 8 8 8 8 8 8 8 7 7 7 7 6 6 5 5 4 4 3 3 3 2 1 1 0 -0 -1 -1 -2 -2 -3 -3 -4 -4 -5 -5 -5 -6 -6
5 5 6 6 6 6 7 7 7 6 6 6 6 6 6 6 5 5 4 4 4 3 3 2 2 1 1 0 -0 -1 -1 -2 -2 -3 -3 -3 -4 -4 -5 -5 -5 -6 -6 -7
4 4 5 5 5 5 6 6 5 5 5 5 5 5 4 4 4 4 3 3 3 2 2 1 1 0 -0 -1 -1 -2 -2 -3 -3 -3 -4 -4 -5 -5 -5 -6 -6 -7 -7 -7
3 3 3 4 4 4 4 4 4 4 4 4 4 4 4 3 3 2 2 1 1 1 0 -0 -1 -1 -1 -2 -2 -3 -3 -3 -4 -4 -4 -5 -5 -6 -6 -7 -7 -7 -7 -8
1 2 2 2 3 3 3 3 3 3 3 3 3 3 2 2 1 1 1 1 0 -0 -1 -1 -2 -2 -2 -3 -3 -3 -4 -4 -4 -5 -5 -5 -6 -6 -7 -7 -7 -8 -8 -8
-0 0 1 1 1 1 1 1 1 2 2 2 2 2 1 1 0 0 -1 -1 -1 -2 -2 -2 -3 -3 -3 -4 -4 -4 -4 -5 -5 -5 -6 -6 -6 -7 -7 -8 -8 -8 -8 -8
-1 -1 -1 -0 -0 0 -0 -0 -0 0 0 0 -0 -0 -0 -1 -1 -1 -2 -2 -2 -3 -3 -3 -4 -4 -4 -4 -4 -5 -5 -5 -6 -6 -6 -7 -7 -7 -8 -8 -8 -8 -9 -9
-2 -2 -2 -1 -1 -1 -1 -1 -1 -1 -1 -2 -2 -2 -2 -2 -2 -3 -3 -3 -3 -4 -4 -4 -5 -5 -5 -5 -5 -6 -6 -6 -6 -7 -7 -7 -8 -8 -8 -8 -9 -9 -9 -9
-3 -3 -3 -3 -3 -3 -3 -3 -2 -3 -3 -3 -3 -3 -3 -3 -4 -4 -4 -4 -4 -5 -5 -5 -5 -5 -6 -6 -6 -6 -6 -7 -7 -7 -7 -8 -8 -8 -9 -9 -9 -9 -9 -10
-4 -4 -4 -4 -4 -4 -4 -4 -4 -4 -4 -4 -4 -4 -4 -5 -5 -5 -5 -5 -5 -6 -6 -6 -6 -6 -6 -7 -7 -7 -7 -7 -8 -8 -8 -8 -9 -9 -9 -9 -9 -9 -10 -10
Wind_Speed
7 5 6 8 11 13 14 14 13 13 15 17 11 10 8 8 7 7 8 8 8 7 6 6 5 5 5 5 5 5 6 6 7 6 5 5 5 5 5 5 6 6 6 5
7 6 6 9 12 16 18 15 16 15 18 14 10 7 8 9 8 9 10 10 9 8 7 7 7 6 5 5 5 5 6 6 5 5 5 5 4 4 4 4 4 4 5 5
7 4 3 12 14 16 13 13 14 21 22 11 9 11 13 11 10 11 12 11 10 9 9 8 7 7 7 6 5 5 5 5 5 5 5 4 4 4 4 4 3 4 4 4
3 4 11 11 7 12 15 15 16 14 12 12 14 13 11 11 11 12 12 11 10 8 7 6 5 5 5 5 5 5 5 5 5 5 4 4 4 4 3 3 3 3 4 4
4 7 10 10 6 9 12 14 15 19 16 12 7 4 9 10 12 13 12 10 8 7 6 5 6 6 6 5 5 5 5 5 5 5 5 4 4 4 3 3 3 3 3 3
6 6 9 9 6 6 5 11 10 14 17 12 5 6 12 8 9 11 9 6 6 5 4 5 5 6 7 6 6 6 6 5 5 5 5 5 4 3 2 2 2 2 2 2
9 9 10 9 4 8 7 10 6 10 13 11 12 15 8 3 5 6 6 5 5 6 5 6 6 7 7 6 6 5 4 4 4 4 4 4 3 2 2 2 2 1 1 1
9 9 13 6 8 10 10 4 3 5 8 10 13 11 6 5 5 5 4 4 5 6 5 4 6 8 7 6 5 5 5 5 4 4 3 3 3 2 2 2 2 1 1 2
11 13 7 8 10 9 5 6 6 6 7 8 9 9 8 6 6 5 5 5 5 6 5 4 5 7 8 5 5 6 5 5 4 3 3 3 3 3 2 2 2 1 1 2
8 12 10 9 9 8 7 8 8 7 6 6 8 8 7 6 5 5 5 5 5 6 6 5 5 5 5 5 6 6 6 4 4 4 3 2 2 2 2 2 2 2 2 3
11 12 9 10 12 12 10 8 8 7 6 7 8 7 7 7 7 6 5 4 5 6 7 6 5 5 5 6 7 6 5 4 4 3 3 2 1 2 2 3 4 3 3 3
14 10 9 11 11 12 11 12 12 10 8 7 8 9 7 7 6 5 5 4 5 5 5 5 6 5 5 6 7 7 5 4 3 3 2 2 2 1 1 2 4 4 5 5
14 10 11 11 10 10 11 12 11 10 10 8 7 7 7 5 4 4 4 5 6 6 6 6 6 6 5 6 6 6 6 5 3 3 3 2 2 1 1 2 3 4 5 6
10 8 10 11 11 10 9 9 8 7 7 6 5 5 5 4 3 5 5 5 5 6 6 6 6 5 5 6 6 5 5 4 4 3 3 2 2 2 2 2 3 3 4 6
12 11 12 9 8 8 6 6 6 6 6 5 4 4 5 6 5 5 4 5 6 6 6 6 6 5 5 6 6 5 4 3 3 3 2 2 2 1 1 2 2 3 3 4
11 10 10 10 11 10 7 7 8 8 7 6 5 5 5 5 4 4 4 6 7 7 6 6 6 5 5 6 6 4 3 3 3 3 2 2 1 1 2 2 2 3 3 4
10 12 11 10 12 10 9 9 9 8 6 6 6 5 5 5 5 4 4 4 5 5 5 6 6 5 5 6 6 4 3 3 2 2 2 2 2 2 2 2 3 4 4 6
10 12 11 9 9 9 8 7 6 6 6 6 6 6 7 7 6 6 6 6 6 5 4 5 6 6 5 5 4 4 3 3 2 2 2 2 2 2 2 3 3 4 5 6
7 7 7 7 7 7 6 5 4 4 4 5 7 6 5 5 6 7 7 7 7 5 3 4 7 6 5 4 4 4 3 3 2 1 1 2 2 2 2 3 4 5 5 5
5 5 4 4 3 3 3 3 4 4 4 6 7 7 6 5 6 7 7 5 3 3 5 5 5 5 4 4 3 3 3 3 2 2 1 2 2 3 3 4 4 5 5 6
2 2 2 2 2 2 2 4 6 5 5 6 7 7 7 6 6 6 6 4 2 4 5 5 4 3 3 3 3 3 3 2 2 2 2 2 3 3 4 4 5 5 6 6
1 1 2 3 5 4 4 4 5 6 7 7 7 8 8 7 6 5 4 3 4 4 4 3 3 3 3 2 2 3 2 2 2 2 2 3 3 4 4 5 5 6 6 6
3 3 3 4 6 6 7 6 6 6 7 7 7 7 7 6 4 4 3 3 3 4 3 3 3 3 2 2 2 2 2 2 2 2 3 3 4 4 5 6 6 6 6 7
4 5 5 6 7 9 8 6 7 7 7 7 6 6 6 6 4 3 3 4 4 4 2 3 3 2 2 2 1 1 1 2 2 3 3 4 4 4 5 6 6 6 7 8
5 6 6 7 7 6 7 7 8 7 8 7 7 6 5 4 3 3 3 3 4 4 3 3 2 2 2 1 1 1 2 2 3 3 3 4 4 5 6 6 6 7 7 8
5 5 5 6 5 5 5 5 5 5 5 6 5 5 5 4 5 4 3 3 4 3 2 2 1 1 1 0 1 1 2 3 4 3 4 5 6 6 6 7 8 7 8 8
6 5 5 6 5 5 4 4 5 5 4 5 5 4 4 4 4 4 4 3 3 2 2 1 1 1 1 1 2 2 3 3 3 4 5 5 6 6 7 8 7 8 8 9
Wind_Direction
241 226 195 212 213 202 209 215 221 235 236 247 243 241 250 252 251 251 254 250 241 237 236 230 225 223 216 210 193 181 182 192 205 204 202 201 202 203 202 202 206 205 207 215
246 236 229 245 229 214 221 227 235 250 256 248 243 233 244 244 238 243 247 246 242 234 229 226 220 215 209 204 191 175 184 199 198 191 190 195 200 196 194 201 203 200 207 212
236 233 277 251 221 212 216 219 216 237 247 251 242 235 235 236 230 233 240 242 236 228 223 221 213 201 200 196 175 173 185 190 185 182 188 193 187 183 194 200 196 205 214 213
194 176 235 248 204 206 219 231 222 236 246 237 237 241 239 228 223 232 237 238 235 224 219 214 193 181 175 167 169 174 181 186 183 178 184 181 177 190 199 193 197 209 217 221
183 220 262 276 231 197 210 243 227 235 247 249 244 280 268 237 222 229 231 227 222 212 203 188 181 171 158 164 168 174 186 191 188 179 178 178 188 198 195 186 200 210 214 216
186 210 238 247 216 177 170 257 239 225 238 239 172 237 259 247 223 227 227 219 208 189 174 177 177 159 158 171 175 191 194 189 179 172 174 183 190 188 177 178 197 196 215 220
205 226 254 249 189 134 183 243 246 214 226 214 202 224 242 232 219 212 208 205 186 173 178 186 166 157 167 175 194 193 168 158 158 165 170 172 164 160 158 159 159 179 227 257
196 219 244 210 153 185 222 244 243 227 223 217 227 239 237 230 219 204 197 189 177 172 182 173 161 162 173 190 187 154 148 149 154 156 153 148 147 148 147 149 154 187 256 297
203 223 241 191 207 225 221 234 238 229 230 224 233 239 232 224 218 209 200 193 180 172 171 169 170 170 179 184 156 147 143 149 150 143 139 147 154 157 150 154 170 219 234 270
233 248 247 241 250 256 242 237 248 246 240 217 227 233 225 221 218 212 204 194 175 164 172 184 179 173 171 158 151 146 148 150 149 145 141 136 146 160 169 186 198 225 244 264
242 255 268 257 241 244 247 252 263 258 243 227 220 229 222 221 218 211 201 187 175 178 184 184 168 162 155 152 146 143 146 149 148 148 151 149 153 190 201 212 216 227 232 236
239 235 224 245 242 239 242 247 247 246 250 239 219 225 220 220 215 199 190 177 175 177 175 170 161 159 156 152 149 147 150 154 157 157 157 158 149 9 325 276 280 279 273 272
243 245 241 256 255 239 237 244 242 235 236 236 227 217 213 215 202 183 178 179 185 182 171 160 157 157 156 150 149 151 158 163 162 164 167 174 180 186 286 326 316 304 296 297
243 245 255 253 252 249 243 247 243 241 237 229 221 205 193 190 177 180 188 189 173 156 152 152 151 156 152 145 142 143 147 158 161 166 172 181 194 211 226 255 297 306 306 305
240 234 240 249 254 258 252 243 235 239 233 223 197 188 183 182 189 191 171 147 137 137 145 147 147 150 143 139 138 141 143 151 155 160 167 177 189 206 230 248 265 285 298 305
240 241 242 245 249 253 248 240 238 239 226 213 198 196 191 175 160 144 140 145 146 156 159 151 150 149 143 137 134 135 143 156 155 154 160 174 190 210 237 250 264 273 279 285
233 238 237 243 245 246 242 238 237 238 221 205 198 179 156 141 134 136 136 135 134 138 142 145 144 139 140 140 138 143 145 154 151 148 172 193 207 223 235 247 262 273 277 283
236 238 233 230 235 236 238 233 227 218 212 199 168 154 158 162 164 157 143 126 114 107 115 129 134 134 134 137 138 143 148 153 162 174 188 204 222 222 230 248 260 270 279 287
246 243 242 236 232 224 221 216 204 192 173 155 152 158 159 156 149 142 137 134 137 138 140 138 136 128 132 141 131 140 146 153 164 186 207 240 262 244 248 255 263 268 274 279
265 256 244 233 211 197 193 171 149 143 143 137 132 129 128 130 132 133 131 130 142 148 145 142 132 132 136 146 132 144 153 164 179 199 221 233 245 254 258 263 267 270 272 274
279 247 212 190 153 127 137 138 135 135 131 131 135 138 134 127 125 127 127 120 111 123 129 126 120 133 142 154 138 142 155 173 195 213 227 239 251 260 265 268 271 273 274 275
343 66 135 132 116 96 83 98 113 119 115 113 114 118 120 119 115 103 99 129 135 125 115 125 136 155 160 137 132 145 162 185 210 222 233 243 252 260 266 268 271 274 274 274
31 61 89 105 107 99 81 78 88 102 108 112 118 122 122 122 123 121 113 117 123 122 108 130 155 152 130 108 130 149 178 209 229 237 244 248 252 256 263 269 271 272 274 275
53 66 78 88 96 95 87 76 78 85 90 91 95 103 111 108 89 78 112 127 121 106 107 140 142 134 91 102 132 173 213 233 245 250 254 257 259 260 263 267 270 272 273 274
68 78 84 90 92 94 97 95 90 89 87 86 82 77 78 90 110 110 105 117 121 98 100 117 109 81 70 117 189 234 251 254 257 261 257 263 265 267 268 269 270 273 275 274
66 73 75 77 87 98 102 101 99 97 96 93 83 79 79 82 92 96 95 95 100 86 74 72 73 45 49 315 277 276 273 280 289 281 267 269 270 270 271 272 272 274 275 274
69 74 77 75 71 76 86 92 97 95 96 102 97 88 87 87 87 87 86 84 79 72 65 51 35 9 330 307 296 288 281 278 276 275 275 274 274 274 274 274 276 276 276 275
Height
1448 1447 1449 1449 1450 1455 1456 1453 1456 1447 1444 1433 1430 1430 1429 1429 1429 1430 1430 1431 1432 1433 1434 1436 1437 1438 1439 1440 1440 1441 1442 1443 1444 1445 1446 1447 1447 1448 1449 1449 1450 1450 1451 1451
1448 1446 1447 1445 1443 1444 1445 1444 1443 1440 1434 1423 1423 1425 1425 1425 1425 1425 1426 1426 1427 1429 1430 1431 1432 1434 1435 1435 1436 1437 1438 1439 1440 1440 1441 1442 1443 1443 1444 1444 1445 1445 1445 1445
1449 1446 1445 1442 1432 1434 1434 1432 1432 1429 1418 1418 1420 1419 1418 1418 1419 1420 1420 1421 1422 1423 1425 1427 1428 1429 1430 1431 1432 1433 1433 1434 1435 1436 1436 1437 1438 1438 1439 1439 1439 1439 1439 1439
1449 1448 1449 1422 1417 1418 1420 1417 1418 1415 1411 1411 1411 1410 1411 1412 1413 1413 1414 1416 1417 1419 1420 1422 1423 1425 1426 1427 1427 1428 1429 1430 1430 1431 1432 1432 1433 1433 1434 1434 1434 1434 1433 1433
1447 1444 1434 1420 1414 1413 1416 1411 1407 1407 1405 1404 1406 1407 1404 1404 1405 1407 1409 1411 1412 1414 1416 1417 1419 1420 1421 1422 1423 1424 1424 1425 1426 1426 1427 1428 1428 1428 1428 1428 1428 1428 1428 1428
1442 1438 1430 1409 1402 1402 1408 1407 1396 1397 1397 1399 1404 1409 1398 1397 1399 1400 1402 1405 1407 1409 1410 1412 1413 1415 1416 1417 1418 1419 1420 1420 1421 1422 1422 1423 1423 1423 1423 1423 1423 1423 1422 1422
1432 1430 1416 1400 1399 1401 1411 1398 1388 1388 1389 1392 1395 1392 1391 1393 1394 1395 1396 1399 1401 1403 1404 1406 1408 1410 1411 1412 1413 1414 1415 1416 1417 1417 1418 1418 1418 1419 1418 1418 1418 1417 1417 1416
1423 1423 1410 1392 1396 1396 1389 1384 1384 1384 1384 1386 1385 1385 1387 1388 1389 1390 1391 1393 1395 1397 1399 1401 1403 1404 1405 1407 1408 1409 1410 1411 1412 1413 1413 1414 1414 1414 1414 1413 1412 1412 1411 1410
1400 1394 1385 1384 1383 1381 1381 1382 1381 1381 1381 1382 1381 1381 1382 1383 1384 1385 1387 1388 1390 1392 1393 1396 1398 1399 1401 1402 1403 1404 1406 1407 1407 1408 1409 1409 1409 1409 1409 1408 1407 1406 1405 1404
1392 1384 1379 1379 1377 1377 1378 1378 1378 1378 1378 1377 1376 1376 1377 1378 1379 1381 1382 1383 1384 1386 1388 1390 1392 1394 1396 1397 1399 1400 1401 1402 1403 1403 1404 1404 1404 1404 1404 1403 1402 1401 1400 1399
1383 1377 1376 1373 1372 1372 1373 1373 1374 1374 1374 1373 1372 1372 1373 1373 1374 1376 1377 1378 1380 1381 1383 1385 1387 1389 1391 1392 1394 1395 1396 1397 1398 1399 1399 1399 1399 1400 1399 1398 1398 1397 1395 1394
1371 1368 1370 1365 1365 1367 1368 1367 1368 1368 1367 1367 1368 1367 1368 1368 1370 1371 1372 1373 1375 1376 1378 1380 1382 1384 1386 1388 1389 1390 1391 1392 1393 1394 1394 1394 1394 1394 1394 1394 1393 1392 1391 1390
1361 1361 1361 1359 1360 1361 1361 1360 1361 1361 1361 1361 1362 1363 1363 1364 1365 1366 1367 1369 1370 1372 1374 1376 1377 1379 1381 1383 1385 1386 1387 1387 1388 1389 1389 1389 1388 1388 1387 1387 1387 1386 1385 1384
1354 1355 1354 1353 1353 1353 1354 1354 1355 1355 1355 1355 1356 1357 1358 1359 1360 1361 1362 1364 1366 1367 1369 1371 1373 1375 1377 1379 1380 1381 1382 1383 1384 1384 1384 1384 1384 1383 1382 1381 1380 1379 1379 1378
1346 1348 1347 1346 1346 1346 1347 1347 1347 1347 1348 1349 1350 1351 1352 1354 1355 1356 1358 1360 1361 1363 1365 1367 1369 1371 1373 1374 1376 1377 1378 1378 1379 1379 1379 1379 1379 1379 1378 1377 1375 1374 1373 1372
1338 1340 1340 1339 1338 1339 1340 1340 1341 1341 1342 1343 1344 1346 1348 1349 1351 1352 1354 1356 1358 1359 1361 1363 1365 1367 1369 1370 1371 1373 1374 1374 1375 1375 1375 1375 1374 1374 1373 1372 1371 1369 1368 1367
1331 1330 1331 1331 1331 1331 1332 1333 1334 1335 1336 1337 1339 1341 1343 1344 1346 1348 1350 1352 1354 1356 1358 1360 1362 1363 1365 1366 1368 1368 1369 1370 1370 1371 1370 1370 1370 1369 1368 1367 1366 1365 1363 1362
1322 1321 1322 1323 1324 1324 1325 1327 1328 1329 1330 1331 1334 1336 1338 1340 1341 1344 1346 1348 1351 1353 1355 1356 1358 1360 1361 1363 1364 1365 1365 1366 1366 1366 1366 1366 1365 1364 1364 1363 1362 1360 1358 1357
1314 1314 1315 1316 1317 1318 1319 1320 1322 1324 1325 1327 1328 1331 1333 1336 1339 1341 1343 1345 1347 1348 1350 1353 1355 1356 1358 1359 1360 1361 1362 1362 1362 1362 1362 1361 1361 1360 1359 1358 1357 1355 1353 1352
1307 1308 1309 1310 1311 1313 1313 1315 1317 1319 1321 1323 1325 1328 1330 1333 1335 1338 1340 1342 1344 1345 1347 1349 1351 1353 1354 1355 1356 1357 1358 1358 1358 1358 1357 1357 1356 1355 1354 1353 1352 1350 1348 1346
1302 1303 1304 1305 1306 1308 1310 1312 1314 1316 1318 1320 1323 1325 1328 1331 1333 1335 1336 1339 1341 1343 1345 1347 1348 1349 1351 1352 1353 1353 1354 1354 1354 1353 1353 1352 1351 1350 1349 1348 1346 1345 1343 1341
1299 1299 1300 1302 1303 1305 1308 1310 1312 1314 1316 1318 1321 1324 1326 1328 1331 1333 1335 1337 1339 1341 1342 1344 1346 1347 1348 1349 1349 1350 1350 1350 1349 1349 1348 1347 1346 1345 1344 1342 1341 1339 1337 1335
1298 1298 1299 1301 1302 1304 1307 1309 1311 1313 1315 1317 1320 1322 1324 1326 1329 1331 1333 1336 1337 1339 1340 1342 1343 1345 1345 1346 1346 1346 1346 1346 1345 1344 1343 1342 1341 1340 1338 1337 1335 1333 1331 1329
1299 1299 1300 1301 1303 1304 1306 1309 1311 1313 1315 1317 1319 1321 1323 1325 1328 1330 1332 1334 1335 1337 1338 1340 1341 1342 1342 1342 1342 1342 1342 1341 1340 1340 1339 1337 1336 1334 1333 1331 1329 1327 1325 1322
1300 1300 1301 1302 1304 1305 1307 1309 1311 1313 1315 1316 1319 1322 1324 1326 1327 1329 1331 1332 1334 1335 1336 1337 1338 1339 1339 1339 1338 1338 1338 1337 1336 1335 1333 1332 1330 1329 1327 1325 1323 1320 1318 1316
1302 1302 1303 1304 1305 1307 1309 1310 1311 1313 1315 1316 1319 1322 1324 1325 1327 1328 1330 1331 1332 1333 1334 1335 1335 1335 1335 1335 1335 1334 1333 1332 1331 1330 1328 1327 1325 1323 1321 1319 1316 1314 1311 1309
1304 1304 1304 1305 1307 1309 1310 1311 1312 1313 1315 1317 1319 1321 1323 1325 1326 1328 1329 1330 1331 1332 1332 1332 1333 1333 1332 1331 1331 1330 1329 1327 1326 1325 1323 1321 1319 1317 1314 1312 1310 1307 1305 1302